Change the Weather History Date:

Tuesday, November 19, 2013

  Actual Average (KRPD) Record (KRPD)
Temperature  
Mean Temperature 26 °F -  
Max Temperature 36 °F 36 °F 53 °F (2012)
Min Temperature 17 °F 23 °F 12 °F (1996)
Degree Days  
Heating Degree Days 38    
Moisture  
Dew Point 20 °F    
Average Humidity 72    
Maximum Humidity 96    
Minimum Humidity 52    
Precipitation  
Precipitation 0.00 in - - ()
Sea Level Pressure  
Sea Level Pressure 30.18 in    
Wind  
Wind Speed 5 mph (SE)    
Max Wind Speed 20 mph    
Max Gust Speed 25 mph    
Visibility 10 miles    
Events      
Averages and records for this station are not official NWS values.
T = Trace of Precipitation, MM = Missing Value Source: NWS Daily Summary

Daily Weather History Graph

Daily Weather History Graph

Search for Another Location

Airport or City:

Trip Planner

Search our weather history database for the weather conditions in past years. The results will help you decide how hot, cold, wet, or windy it might be!

Date:

Astronomy

Nov. 19, 2013 Rise Set
Actual Time 7:08 AM CST 4:29 PM CST
Civil Twilight 6:36 AM CST 5:02 PM CST
Nautical Twilight 6:00 AM CST 5:38 PM CST
Astronomical Twilight 5:24 AM CST 6:13 PM CST
Moon 6:20 PM CST (11/19) 8:49 AM CST (11/19)
Length of Visible Light 10h 25m
Length of Day
9h 20m
Waning Gibbous, 96% of the Moon is Illuminated
Nov 19
Waning Gibbous
Nov 25
Last Quarter
Dec 2
New
Dec 9
First Quarter
Dec 17
Full

Hourly Weather History & Observations

Time (CST) Temp. Windchill Dew Point Humidity Pressure Visibility Wind Dir Wind Speed Gust Speed Precip Events Conditions
12:15 AM 21.9 °F - 17.4 °F 83% 30.25 in 10.0 mi Calm Calm - N/A   Clear
12:35 AM 21.6 °F - 18.0 °F 86% 30.24 in 10.0 mi Calm Calm - N/A   Clear
12:55 AM 21.2 °F - 18.5 °F 89% 30.24 in 10.0 mi Calm Calm - N/A   Clear
1:15 AM 21.2 °F - 19.0 °F 91% 30.25 in 10.0 mi Calm Calm - N/A   Clear
1:35 AM 20.3 °F - 17.6 °F 89% 30.25 in 10.0 mi Calm Calm - N/A   Clear
1:55 AM 19.6 °F - 16.9 °F 89% 30.26 in 10.0 mi Calm Calm - N/A   Clear
2:15 AM 19.4 °F - 17.4 °F 92% 30.27 in 10.0 mi Calm Calm - N/A   Clear
2:35 AM 19.0 °F - 17.2 °F 93% 30.27 in 10.0 mi Calm Calm - N/A   Clear
2:55 AM 18.1 °F - 16.5 °F 93% 30.27 in 10.0 mi Calm Calm - N/A   Clear
3:15 AM 19.9 °F - 18.3 °F 93% 30.27 in 10.0 mi Calm Calm - N/A   Clear
3:35 AM 18.5 °F 13.3 °F 16.9 °F 93% 30.27 in 10.0 mi NE 3.5 mph - N/A   Clear
3:55 AM 18.0 °F - 16.3 °F 93% 30.27 in 10.0 mi Calm Calm - N/A   Clear
4:15 AM 18.7 °F - 17.2 °F 94% 30.28 in 10.0 mi Calm Calm - N/A   Clear
4:35 AM 17.6 °F - 15.8 °F 93% 30.29 in 10.0 mi Calm Calm - N/A   Clear
4:55 AM 19.2 °F - 18.1 °F 96% 30.29 in 10.0 mi Calm Calm - N/A   Clear
5:15 AM 18.5 °F - 16.7 °F 93% 30.28 in 10.0 mi Calm Calm - N/A   Clear
5:35 AM 18.5 °F - 16.7 °F 93% 30.28 in 10.0 mi Calm Calm - N/A   Clear
5:55 AM 18.5 °F - 16.7 °F 93% 30.28 in 10.0 mi Calm Calm - N/A   Clear
6:15 AM 17.6 °F - 15.8 °F 93% 30.28 in 10.0 mi Calm Calm - N/A   Clear
6:35 AM 18.0 °F 12.7 °F 15.8 °F 91% 30.28 in 10.0 mi East 3.5 mph - N/A   Clear
6:55 AM 17.6 °F 12.3 °F 15.6 °F 92% 30.28 in 10.0 mi East 3.5 mph - N/A   Clear
7:15 AM 17.4 °F 10.4 °F 15.4 °F 92% 30.28 in 10.0 mi East 4.6 mph - N/A   Clear
7:35 AM 18.5 °F 11.7 °F 16.7 °F 93% 30.28 in 10.0 mi East 4.6 mph - N/A   Clear
7:55 AM 19.4 °F 12.8 °F 17.4 °F 92% 30.28 in 10.0 mi ESE 4.6 mph - N/A   Clear
8:15 AM 21.4 °F 13.8 °F 19.2 °F 91% 30.28 in 10.0 mi SE 5.8 mph - N/A   Clear
8:35 AM 23.0 °F 15.8 °F 19.9 °F 88% 30.28 in 10.0 mi SE 5.8 mph - N/A   Clear
8:55 AM 24.6 °F 15.8 °F 20.3 °F 84% 30.28 in 10.0 mi ESE 8.1 mph - N/A   Clear
9:15 AM 25.7 °F 17.1 °F 20.7 °F 81% 30.28 in 10.0 mi SE 8.1 mph - N/A   Clear
9:35 AM 27.1 °F 18.9 °F 21.4 °F 79% 30.28 in 10.0 mi SE 8.1 mph - N/A   Clear
9:55 AM 28.2 °F 19.5 °F 21.4 °F 76% 30.27 in 10.0 mi SSE 9.2 mph - N/A   Clear
10:15 AM 29.7 °F 21.3 °F 21.4 °F 71% 30.27 in 10.0 mi SSE 9.2 mph - N/A   Clear
10:35 AM 30.9 °F 22.2 °F 21.7 °F 69% 30.27 in 10.0 mi SSE 10.4 mph - N/A   Clear
10:55 AM 32.0 °F 24.2 °F 21.6 °F 65% 30.26 in 10.0 mi SSE 9.2 mph - N/A   Clear
11:15 AM 32.0 °F 23.6 °F 21.4 °F 65% 30.25 in 10.0 mi SSE 10.4 mph - N/A   Clear
11:35 AM 32.5 °F 25.5 °F 21.9 °F 65% 30.23 in 10.0 mi SSE 8.1 mph - N/A   Clear
11:55 AM 33.8 °F 24.8 °F 21.9 °F 62% 30.22 in 10.0 mi ESE 12.7 mph 17.3 mph N/A   Clear
12:15 PM 34.9 °F 27.1 °F 21.9 °F 59% 30.20 in 10.0 mi SE 10.4 mph 18.4 mph N/A   Clear
12:35 PM 35.2 °F 26.6 °F 21.2 °F 57% 30.19 in 10.0 mi ESE 12.7 mph - N/A   Clear
12:55 PM 36.0 °F 29.0 °F 21.2 °F 55% 30.19 in 10.0 mi SE 9.2 mph - N/A   Clear
1:15 PM 36.5 °F 28.2 °F 21.2 °F 54% 30.17 in 10.0 mi SE 12.7 mph 17.3 mph N/A   Clear
1:35 PM 36.5 °F 28.2 °F 20.5 °F 52% 30.16 in 10.0 mi SSE 12.7 mph 19.6 mph N/A   Clear
1:55 PM 36.5 °F 29.2 °F 21.0 °F 54% 30.16 in 10.0 mi SSE 10.4 mph 16.1 mph N/A   Clear
2:15 PM 36.3 °F 28.9 °F 21.4 °F 55% 30.15 in 10.0 mi SE 10.4 mph 17.3 mph N/A   Clear
2:35 PM 36.5 °F 29.2 °F 21.4 °F 54% 30.15 in 10.0 mi SE 10.4 mph 16.1 mph N/A   Clear
2:55 PM 36.1 °F 28.2 °F 21.7 °F 56% 30.14 in 10.0 mi SE 11.5 mph 18.4 mph N/A   Clear
3:15 PM 36.0 °F 29.0 °F 22.1 °F 57% 30.14 in 10.0 mi SE 9.2 mph - N/A   Clear
3:35 PM 35.8 °F 27.8 °F 22.1 °F 58% 30.13 in 10.0 mi SE 11.5 mph 16.1 mph N/A   Scattered Clouds
3:55 PM 35.6 °F 27.1 °F 21.6 °F 57% 30.12 in 10.0 mi SE 12.7 mph 19.6 mph N/A   Scattered Clouds
4:15 PM 35.1 °F 28.6 °F 21.9 °F 59% 30.12 in 10.0 mi SE 8.1 mph - N/A   Scattered Clouds
4:35 PM 34.9 °F 26.2 °F 22.1 °F 60% 30.10 in 10.0 mi SE 12.7 mph 17.3 mph N/A   Mostly Cloudy
4:55 PM 34.9 °F 26.6 °F 22.6 °F 61% 30.09 in 10.0 mi SE 11.5 mph 20.7 mph N/A   Overcast
5:15 PM 34.9 °F 26.2 °F 22.6 °F 61% 30.09 in 10.0 mi SE 12.7 mph - N/A   Overcast
5:35 PM 34.9 °F 24.9 °F 22.1 °F 60% 30.08 in 10.0 mi SE 16.1 mph 20.7 mph N/A   Overcast
5:55 PM 34.9 °F 25.3 °F 22.1 °F 60% 30.08 in 10.0 mi SE 15.0 mph 18.4 mph N/A   Overcast
6:15 PM 34.9 °F 26.6 °F 21.9 °F 59% 30.08 in 10.0 mi SE 11.5 mph 24.2 mph N/A   Overcast
6:35 PM 34.7 °F 25.9 °F 22.1 °F 60% 30.08 in 10.0 mi SE 12.7 mph 20.7 mph N/A   Overcast
6:55 PM 34.7 °F 26.4 °F 22.3 °F 61% 30.08 in 10.0 mi SE 11.5 mph 18.4 mph N/A   Scattered Clouds
7:15 PM 34.3 °F 25.5 °F 22.3 °F 61% 30.07 in 10.0 mi SE 12.7 mph 18.4 mph N/A   Clear
7:35 PM 34.9 °F 26.2 °F 22.1 °F 60% 30.06 in 10.0 mi SE 12.7 mph 23.0 mph N/A   Clear
8:15 PM 35.2 °F 27.6 °F 22.5 °F 60% 30.06 in 10.0 mi SSE 10.4 mph 23.0 mph N/A   Scattered Clouds
8:35 PM 35.6 °F 25.9 °F 22.6 °F 59% 30.05 in 10.0 mi SSE 16.1 mph 23.0 mph N/A   Scattered Clouds
8:55 PM 35.8 °F 25.1 °F 22.8 °F 59% 30.05 in 10.0 mi SSE 19.6 mph 25.3 mph N/A   Scattered Clouds
9:15 PM 35.8 °F 26.1 °F 22.8 °F 59% 30.05 in 10.0 mi SSE 16.1 mph 23.0 mph N/A   Mostly Cloudy
9:35 PM 36.0 °F 28.5 °F 23.0 °F 59% 30.05 in 10.0 mi SSE 10.4 mph 20.7 mph N/A   Overcast
9:55 PM 36.0 °F 28.0 °F 23.0 °F 59% 30.05 in 10.0 mi SSE 11.5 mph 21.9 mph N/A   Overcast
10:15 PM 36.5 °F 28.2 °F 22.8 °F 58% 30.05 in 10.0 mi SSE 12.7 mph 24.2 mph N/A   Overcast
10:35 PM 36.5 °F 28.7 °F 22.8 °F 58% 30.06 in 10.0 mi SSE 11.5 mph 17.3 mph N/A   Overcast
10:55 PM 36.5 °F 28.2 °F 22.6 °F 57% 30.05 in 10.0 mi SSE 12.7 mph 18.4 mph N/A   Overcast
11:15 PM 36.5 °F 27.8 °F 22.6 °F 57% 30.05 in 10.0 mi SSE 13.8 mph 18.4 mph N/A   Overcast
11:35 PM 36.5 °F 28.2 °F 21.9 °F 56% 30.05 in 10.0 mi SSE 12.7 mph 21.9 mph N/A   Overcast
11:55 PM 36.7 °F 29.4 °F 21.9 °F 55% 30.05 in 10.0 mi SSE 10.4 mph 17.3 mph N/A   Overcast